This is the latest recevied weather packets stored in our database for station/object K7FRY. If no packets are shown the sender has not sent any weather packets the latest 10 day(s).
| Time | Temp. | Humidity | Pressure | Rain* | Wind** | Luminosity | Snow |
|---|---|---|---|---|---|---|---|
| 1777714047 | 15° C | 39% | 1015.1 hPa | 0 mm | - | 0 W/m² | - |
| 1777713745 | 15° C | 39% | 1015 hPa | 0 mm | - | 0 W/m² | - |
| 1777713442 | 14.44° C | 39% | 1015.1 hPa | 0 mm | - | 0 W/m² | - |
| 1777713138 | 14.44° C | 40% | 1015.2 hPa | 0 mm | - | 0 W/m² | - |
| 1777712835 | 15° C | 39% | 1015.1 hPa | 0 mm | - | 0 W/m² | - |
| 1777712532 | 17.22° C | 37% | 1015.2 hPa | 0 mm | - | 0 W/m² | - |
| 1777712229 | 16.11° C | 38% | 1015.1 hPa | 0 mm | - | 0 W/m² | - |
| 1777711925 | 16.11° C | 38% | 1015 hPa | 0 mm | - | 0 W/m² | - |
| 1777711623 | 16.11° C | 37% | 1015.1 hPa | 0 mm | - | 0 W/m² | - |
| 1777711317 | 16.67° C | 37% | 1015 hPa | 0 mm | - | 0 W/m² | - |
| 1777711014 | 16.67° C | 36% | 1015 hPa | 0 mm | - | 0 W/m² | - |
| 1777710711 | 17.22° C | 36% | 1015.2 hPa | 0 mm | - | 0 W/m² | - |
| 1777710408 | 17.22° C | 35% | 1015.2 hPa | 0 mm | - | 0 W/m² | - |
| 1777710105 | 17.22° C | 36% | 1015.3 hPa | 0 mm | - | 0 W/m² | - |
| 1777709803 | 17.78° C | 35% | 1015.2 hPa | 0 mm | - | 0 W/m² | - |
| 1777709499 | 17.78° C | 35% | 1015 hPa | 0 mm | - | 0 W/m² | - |
| 1777709198 | 17.78° C | 35% | 1014.9 hPa | 0 mm | - | 0 W/m² | - |
| 1777708895 | 18.33° C | 35% | 1014.9 hPa | 0 mm | - | 0 W/m² | - |
| 1777708592 | 18.33° C | 34% | 1015.1 hPa | 0 mm | - | 0 W/m² | - |
| 1777708290 | 18.33° C | 34% | 1015 hPa | 0 mm | - | 0 W/m² | - |
| 1777707987 | 18.33° C | 34% | 1015.1 hPa | 0 mm | - | 0 W/m² | - |
| 1777707684 | 18.89° C | 34% | 1015.2 hPa | 0 mm | - | 0 W/m² | - |
| 1777707380 | 18.89° C | 33% | 1014.9 hPa | 0 mm | - | 0 W/m² | - |
| 1777707077 | 18.89° C | 33% | 1015.2 hPa | 0 mm | - | 0 W/m² | - |
| 1777706775 | 18.33° C | 33% | 1015.1 hPa | 0 mm | - | 0 W/m² | - |
* Rain latest hour (hover to see other rain measurements)
** Current wind speed in m/s (hover to see current wind gust speed)